www.pogodaiklimat.ru
ПОГОДА на Острове Хармая
Время
(UTC), дата
04 6.12
05 6.12
06 6.12
07 6.12
08 6.12
09 6.12
10 6.12
11 6.12
12 6.12
13 6.12
14 6.12
15 6.12
16 6.12
17 6.12
18 6.12
19 6.12
20 6.12
21 6.12
22 6.12
23 6.12
00 7.12
01 7.12
02 7.12
03 7.12
04 7.12
05 7.12
06 7.12
07 7.12
08 7.12
09 7.12
10 7.12
11 7.12
12 7.12
13 7.12
14 7.12
15 7.12
16 7.12
17 7.12
18 7.12
19 7.12
20 7.12
21 7.12
22 7.12
23 7.12
00 8.12
01 8.12
02 8.12
03 8.12
04 8.12
05 8.12
06 8.12
07 8.12
08 8.12
09 8.12
10 8.12
11 8.12
12 8.12
13 8.12
14 8.12
15 8.12
16 8.12
17 8.12
18 8.12
19 8.12
20 8.12
21 8.12
22 8.12
23 8.12
00 9.12
01 9.12
02 9.12
03 9.12
04 9.12
05 9.12
06 9.12
07 9.12
08 9.12
09 9.12
10 9.12
11 9.12
12 9.12
13 9.12
14 9.12
15 9.12
16 9.12
17 9.12
18 9.12
19 9.12
20 9.12
21 9.12
22 9.12
23 9.12
00 10.12
01 10.12
02 10.12
03 10.12
04 10.12
05 10.12
06 10.12
07 10.12
08 10.12
09 10.12
10 10.12
11 10.12
12 10.12
13 10.12
14 10.12
15 10.12
16 10.12
17 10.12
18 10.12
19 10.12
20 10.12
21 10.12
22 10.12
23 10.12
00 11.12
01 11.12
02 11.12
03 11.12
04 11.12
05 11.12
06 11.12
07 11.12
08 11.12
09 11.12
10 11.12
11 11.12
12 11.12
13 11.12
14 11.12
15 11.12
16 11.12
17 11.12
18 11.12
19 11.12
20 11.12
21 11.12
22 11.12
23 11.12
00 12.12
01 12.12
02 12.12
03 12.12
04 12.12
05 12.12
06 12.12
07 12.12
08 12.12
09 12.12
10 12.12
11 12.12
12 12.12
13 12.12
14 12.12
15 12.12
16 12.12
17 12.12
18 12.12
19 12.12
20 12.12
21 12.12
22 12.12
23 12.12
00 13.12
01 13.12
02 13.12
03 13.12
Ветер
(напр.,м/с)
Видим. Явления Облачность Т
(С)
Тd
(С)
f
(%)
Тe
(С)
Тes
(С)
Комфортность P
(гПа)
Po
(гПа)
Тmin
(С)
Tmax
(С)
R
(мм)
R24
(мм)
S
(см)
ЮЗ 15-18
{20}
11 км слаб. ливневой дождь 10/10 300 м
[]
+6.3 +4.9 91 -1 -1 990.3 989.0
ЮЗ 15-18
{19}
10 км слаб. дождь 10/0 300 м
[]
+6.0 +4.3 89 -1 -1 989.6 988.4
ЮЗ 12-15
{19}
8000 м морось {ливн. осадки, дождь} 10/0 300 м
[]
+5.8 +4.6 92 -1 -1 989.0 987.8 +5.8 +7.1
ЮЗ 15-19
{21}
8000 м морось 10/0 300 м
[]
+5.7 +4.1 89 -2 -2 988.4 987.2
ЮЗ 15-19
{19}
5000 м морось 10/0 200 м
[]
+5.7 +4.6 93 -2 -2 987.9 986.7
ЮЗ 14-18
{20}
13 км морось {дождь} 10/0 300 м
[]
+5.7 +4.1 89 -2 -2 987.8 986.5
ЮЗ 12-15
{17}
5000 м морось 10/0 300 м
[]
+5.7 +4.8 94 -1 -1 987.1 985.8
ЮЗ 11-12
{16}
8000 м морось 10/0 300 м
[]
+6.0 +5.0 93 -1 -1 986.7 985.4
ЮЗ 10-12
{12}
5000 м дождь {морось} 10/0 100 м
[]
+6.3 +5.8 97 0 0 986.3 985.1
ЮЗ 7-8
{13}
18 км в посл. час дождь 10/0 600 м
[]
+6.3 +5.5 95 +1 +1 986.3 985.0
ЮЗ 7-8
{9}
27 км 10/0 600 м
[]
+6.4 +5.8 96 +1 +1 986.7 985.5
ЮЗ 7-8
{8}
30 км {дождь, морось} 10/10 600 м
[]
+6.4 +5.8 96 +1 +1 986.9 985.7
ЮЗ 7-8
{9}
40 км 9/9 200 м
[]
+6.4 +5.7 95 +1 +1 987.8 986.6
З 8-10
{10}
45 км 10/0 300 м
[]
+6.3 +5.6 95 +1 +1 988.3 987.1
ЮЗ 8-9
{11}
40 км {дождь, морось} 10/0 600 м
[]
+6.2 +5.2 93 +1 +1 988.6 987.4 +5.5 +6.5
ЮЗ 9-11
{11}
50 км 10/0 600 м
[]
+6.3 +5.1 92 +1 +1 989.4 988.2
ЮЗ 8-10
{12}
27 км 10/0 300 м
[]
+6.1 +5.1 93 +1 +1 989.6 988.3
З 9-11
{13}
50 км 10/0 600 м
[]
+6.0 +4.4 89 0 0 990.3 989.1
З 7-9
{9}
50 км 10/0 600 м
[]
+5.9 +4.7 92 +1 +1 990.9 989.6
З 8-10
{12}
50 км 10/0 600 м
[]
+6.1 +4.1 87 +1 +1 991.5 990.3
З 8-9
{11}
50 км 6/1 300 м
[]
+5.7 +4.0 89 0 0 991.8 990.6
З 8-9
{9}
50 км 10/0 2000 м
[]
+6.0 +4.2 88 0 0 992.1 990.9
ЮЗ 5-6
{9}
50 км 10/0 600 м
[]
+6.2 +4.7 90 +2 +2 991.7 990.4
ЮЗ 6-6
{6}
45 км 10/0 300 м
[]
+6.5 +5.1 91 +2 +2 991.2 989.9
ЮЗ 8-10
{10}
7000 м слаб. ливневой дождь 10/0 100 м
[]
+6.7 +6.3 97 +1 +1 990.7 989.4
Ю 8-9
{10}
10 км слаб. ливневой дождь 10/0 100 м
[]
+6.7 +6.4 98 +1 +1 989.9 988.6
Ю 9-12
{12}
3200 м ливневой дождь 10/0 100 м
[]
+6.6 +6.4 99 +1 +1 989.3 988.0 +5.6 +6.7
Ю 11-13
{13}
3800 м дождь 10/0 100 м
[]
+6.4 +6.1 98 0 0 988.7 987.5
Ю 13-16
{16}
2300 м слаб. дождь со снегом 10/0 100 м
[]
+6.2 +5.9 98 -1 -1 988.3 987.0
Ю 15-17
{17}
2600 м слаб. дождь 10/0 100 м
[]
+6.2 +5.8 97 -1 -1 987.6 986.3
Ю 14-17
{17}
3700 м слаб. дождь 10/0 100 м
[]
+6.1 +5.6 97 -1 -1 986.4 985.1
Ю 13-15
{16}
7000 м в посл. час снег 10/0 100 м
[]
+5.9 +5.5 97 -1 -1 985.6 984.4
Ю 14-16
{17}
2500 м слаб. дождь 10/0 100 м
[]
+5.8 +5.3 97 -2 -2 984.8 983.6
Ю 14-16
{17}
2600 м слаб. ливневой дождь 10/0 100 м
[]
+5.9 +5.5 97 -1 -1 983.9 982.7
Ю 14-17
{18}
5000 м слаб. ливневой дождь 10/0 100 м
[]
+6.1 +5.6 97 -1 -1 983.2 982.0
Ю 13-16
{17}
5000 м ливневой дождь 10/0 100 м
[]
+6.2 +5.8 97 -1 -1 982.4 981.2
Ю 13-15
{16}
2800 м морось 10/0 100 м
[]
+6.4 +5.9 97 -0 -0 982.0 980.8
ЮЗ 13-15
{16}
4800 м ливневой дождь 10/0 100 м
[]
+6.6 +6.2 97 -0 -0 981.3 980.1
ЮЗ 12-14
{17}
35 км в посл. час снег {ливн. осадки, дождь} 10/0 100 м
[]
+6.3 +4.8 90 -0 -0 980.6 979.4 +5.8 +6.7
ЮЗ 12-14
{16}
24 км 10/0 300 м
[]
+5.4 +3.6 88 -1 -1 980.6 979.3
З 8-9
{13}
50 км 9/9 200 м
[]
+5.5 +4.1 91 -0 -0 980.4 979.1
СЗ 12-15
{15}
45 км 10/0 200 м
[]
+3.7 +2.2 90 -4 -4 980.8 979.6
СЗ 12-14
{16}
50 км 10/0 300 м
[]
+3.2 +1.5 89 -5 -5 981.9 980.7
СЗ 11-14
{14}
50 км 9/0 300 м
[]
+3.2 +1.3 87 -4 -4 983.0 981.7
З 11-14
{15}
12 км 10/0 300 м
[]
+3.0 +1.4 89 -5 -5 984.2 982.9
З 12-14
{15}
50 км в посл. час осадки 9/9 300 м
[]
+3.3 +1.2 86 -4 -4 985.0 983.7
З 12-15
{17}
27 км осадки 9/0 300 м
[]
+3.3 +0.9 84 -4 -4 986.0 984.7
З 12-14
{17}
50 км {ливн. осадки, морось} 3/0 300 м
[]
+2.8 +0.3 84 -5 -5 986.7 985.4
З 12-15
{15}
45 км 8/0 600 м
[]
+3.2 0.0 80 -4 -4 987.4 986.2
З 12-15
{15}
45 км 6/6 600 м
[]
+2.8 -0.4 79 -5 -5 988.2 987.0
З 10-13
{14}
50 км {ливн. осадки, морось} 8/0 600 м
[]
+2.9 -0.2 80 -4 -4 988.8 987.5 +2.8 +6.3
З 11-13
{15}
50 км 3/3 300 м
[]
+2.8 +0.3 84 -5 -5 989.4 988.1
З 11-13
{14}
45 км 3/0 300 м
[]
+2.9 +0.4 84 -5 -5 989.8 988.5
З 10-12
{13}
45 км 5/0 300 м
[]
+2.9 +0.8 86 -4 -4 990.2 988.9
З 9-11
{11}
45 км ясно +3.4 +1.3 86 -3 -3 989.7 988.4
З 9-11
{11}
45 км ясно +4.1 +1.4 83 -2 -2 989.2 987.9
ЮЗ 9-11
{13}
40 км 4/3 600 м
[]
+4.9 +1.7 80 -1 -1 988.7 987.4
ЮЗ 9-12
{13}
35 км слаб. ливневой дождь 9/6 600 м
[]
+5.0 +1.8 80 -1 -1 987.9 986.6
ЮЗ 9-13
{17}
45 км слаб. ливневой дождь 9/9 300 м
[]
+4.6 +2.7 87 -2 -2 987.2 985.9
Ю 12-14
{15}
9000 м морось {ливн. осадки} 10/10 300 м
[]
+4.3 +2.2 86 -3 -3 985.7 984.5
Ю 11-13
{15}
5000 м дождь 10/0 300 м
[]
+3.3 +2.1 92 -4 -4 984.7 983.4
Ю 15-18
{18}
5000 м слаб. дождь 10/0 200 м
[]
+3.4 +2.4 93 -5 -5 982.5 981.2
Ю 15-18
{18}
7000 м слаб. дождь 10/0 200 м
[]
+3.4 +2.4 93 -5 -5 980.4 979.2 +2.6 +5.1
Ю 15-18
{18}
3800 м слаб. ливневой дождь 10/0 100 м
[]
+4.2 +3.7 97 -4 -4 978.5 977.2
Ю 14-16
{17}
3400 м слаб. дождь 10/0 100 м
[]
+5.1 +4.7 97 -2 -2 977.1 975.8
Ю 14-17
{17}
2000 м переохл. дождь (гололёд) 10/0 100 м
[]
+6.0 +5.7 98 -1 -1 975.9 974.7
ЮЗ 16-19
{19}
2500 м слаб. дождь 10/0 100 м
[]
+6.6 +6.3 98 -1 -1 975.5 974.2
ЮЗ 15-18
{19}
14 км в посл. час дождь 10/0 300 м
[]
+7.1 +6.1 93 0 0 975.6 974.3
ЮЗ 15-18
{20}
18 км в посл. час дождь со снегом {ливн. осадки} 10/0 300 м
[]
+7.4 +5.8 90 +1 +1 976.0 974.8
ЮЗ 13-15
{19}
15 км 9/0 600 м
[]
+7.3 +5.1 86 +1 +1 976.8 975.6
ЮЗ 14-17
{18}
13 км 10/0 600 м
[]
+7.2 +4.9 85 +1 +1 977.3 976.0
ЮЗ 16-20
{21}
12 км ливневой дождь 9/0 300 м
[]
+7.2 +4.9 85 0 0 977.5 976.3
ЮЗ 16-19
{21}
13 км в посл. час морось 9/0 600 м
[]
+7.1 +4.9 86 0 0 977.7 976.4
ЮЗ 17-21
{22}
13 км слаб. ливневой дождь 9/0 600 м
[]
+7.0 +4.2 82 0 0 978.0 976.7
ЮЗ 18-22
{22}
16 км в посл. час дождь со снегом {ливн. осадки} 6/0 600 м
[]
+6.6 +3.5 81 -1 -1 978.5 977.3 +3.5 +7.6
ЮЗ 16-20
{25}
8000 м ливневой дождь 9/9 300 м
[]
+6.3 +4.0 85 -1 -1 979.2 978.0
ЮЗ 17-21
{22}
16 км в посл. час дождь 4/0 600 м
[]
+6.7 +3.9 82 -0 -0 980.1 978.9
ЮЗ 15-18
{23}
16 км ливневой дождь 9/9 300 м
[]
+5.9 +3.7 86 -1 -1 981.2 980.0
ЮЗ 16-20
{21}
20 км 3/3 600 м
[]
+6.4 +3.7 83 -1 -1 981.8 980.5
ЮЗ 14-17
{20}
20 км слаб. ливневой дождь 6/6 1000 м
[]
+6.0 +4.2 88 -1 -1 982.5 981.3
ЮЗ 14-17
{18}
25 км {ливн. осадки, дождь} 5/5 600 м
[]
+6.5 +4.1 85 -0 -0 983.3 982.1
ЮЗ 14-17
{18}
21 км 9/9 600 м
[]
+6.3 +4.0 85 -1 -1 984.2 982.9
З 13-16
{18}
22 км 6/0 300 м
[]
+6.4 +4.4 87 -0 -0 985.1 983.9
ЮЗ 13-16
{16}
11 км туман на расстоянии 9/9 300 м
[]
+6.4 +4.8 89 -0 -0 986.0 984.8
ЮЗ 14-16
{16}
18 км слаб. ливневой дождь 9/0 300 м
[]
+6.7 +4.6 86 0 0 986.9 985.7
З 11-14
{17}
12 км слаб. ливневой дождь 10/0 300 м
[]
+6.4 +5.1 91 0 0 987.8 986.5
ЮЗ 15-18
{18}
24 км в посл. час снег {ливн. осадки, дождь} 9/0 300 м
[]
+6.4 +3.9 84 -1 -1 988.7 987.4 +5.2 +6.9
ЮЗ 14-16
{18}
16 км слаб. ливневой дождь 9/0 600 м
[]
+6.3 +4.0 85 -1 -1 989.6 988.4
З 11-12
{17}
30 км в посл. час дождь 9/0 600 м
[]
+6.2 +4.0 86 -0 -0 990.8 989.5
ЮЗ 9-11
{16}
25 км ливневой дождь {морось} 9/9 300 м
[]
+6.3 +4.4 88 +1 +1 991.7 990.5
ЮЗ 11-12
{16}
17 км слаб. ливневой дождь 9/9 600 м
[]
+6.2 +3.7 84 0 0 992.5 991.3
СЗ 5-6
{12}
13 км слаб. ливневой дождь 10/0 300 м
[]
+4.2 +3.2 93 -1 -1 993.4 992.1
С 6-7
{7}
6000 м дождь {ливн. осадки} 10/0 300 м
[]
+2.2 +1.4 94 -4 -4 994.4 993.2
-6
{7}
2100 м слаб. снег 10/10 100 м
[]
+1.0 +0.6 97 995.5 994.2
С 6-8
{8}
12 км слаб. снег 10/10 100 м
[]
+1.1 +0.8 98 -5 -5 996.3 995.0
С 6-7
{8}
10 км переохл. дождь (гололёд) {снег} 10/10 100 м
[]
+1.4 +0.6 94 -5 -5 997.5 996.3
С 8-9
{9}
14 км слаб. дождь 10/0 200 м
[]
+1.3 +0.5 94 -6 -6 998.1 996.9
СЗ 9-11
{11}
17 км ливневой дождь 10/10 300 м
[]
+0.9 -0.9 88 -7 -7 1000.4 999.1
СЗ 8-9
{11}
3000 м слаб. снег 10/10 100 м
[]
-0.2 -0.5 98 -8 -8 1001.0 999.7 -0.2 +6.4
СЗ 8-10
{10}
50 км в посл. час зёрна 9/9 300 м
[]
-0.1 -1.3 92 -8 -8 1002.6 1001.3
С 8-11
{11}
50 км 9/1 300 м
[]
0.0 -2.0 86 -8 -8 1004.4 1003.1
С 8-10
{10}
45 км слаб. ливневой снег 10/0 300 м
[]
-0.4 -2.8 84 -8 -8 1006.0 1004.7
С 8-11
{12}
50 км 10/0 300 м
[]
-0.6 -3.2 83 -8 -8 1007.3 1006.0
С 8-12
{12}
45 км 9/0 300 м
[]
-1.3 -4.0 82 -9 -9 1008.6 1007.3
С 7-8
{9}
50 км {ливн. осадки, снег} 3/0 300 м
[]
-0.9 -3.7 81 -8 -8 1009.9 1008.6
С 6-8
{8}
50 км 5/0 600 м
[]
-1.3 -4.8 77 -8 -8 1011.0 1009.7
С 5-6
{9}
50 км 5/0 300 м
[]
-1.3 -4.2 81 -8 -8 1012.4 1011.1
СЗ 6-7
{8}
50 км 1/0 300 м
[]
-1.3 -3.9 82 -8 -8 1013.7 1012.4
С 6-7
{8}
50 км ясно -1.5 -4.0 83 -8 -8 1014.7 1013.4
С 5-7
{7}
50 км ясно -1.4 -3.7 84 -8 -8 1015.6 1014.3
СЗ 5-6
{6}
50 км ясно -1.7 -4.0 84 -8 -8 1016.4 1015.1 -1.8 +0.2
С 3-4
{5}
50 км ясно -1.9 -4.4 83 -7 -7 1016.7 1015.4
З 1-1
{3}
50 км ясно -2.1 -4.5 84 -4 -4 1017.3 1016.0
З 2-3
{5}
50 км 8/0 300 м
[]
-1.4 -3.7 84 -5 -5 1017.9 1016.6
Ю 4-6
{6}
50 км 5/0 300 м
[]
-0.2 -3.8 77 -6 -6 1018.0 1016.7
Ю 5-8
{8}
50 км 8/0 600 м
[]
+0.6 -3.2 76 -5 -5 1017.9 1016.6
Ю 7-9
{9}
50 км 9/5 600 м
[]
+0.9 -3.3 73 -6 -6 1017.6 1016.3
Ю 9-11
{11}
50 км 9/6 300 м
[]
+0.5 -3.0 77 -7 -7 1017.6 1016.3
Ю 9-11
{12}
50 км 9/3 300 м
[]
+0.2 -2.5 82 -8 -8 1017.1 1015.8
Ю 10-12
{12}
40 км 9/6 300 м
[]
+0.5 -2.3 81 -7 -7 1016.7 1015.4
Ю 10-12
{13}
35 км 9/1 300 м
[]
+1.0 -1.2 85 -7 -7 1016.2 1014.9
Ю 11-13
{13}
30 км 10/0
[]
+1.2 -0.9 86 -7 -7 1015.3 1014.0
Ю 12-14
{14}
30 км 10/0
[]
+1.4 -0.4 88 -7 -7 1015.1 1013.8 -2.3 +1.4
Ю 13-17
{17}
20 км 9/1 300 м
[]
+1.4 -0.9 85 -7 -7 1014.2 1012.9
Ю 14-16
{17}
19 км 9/1 300 м
[]
+1.5 -0.4 87 -7 -7 1013.8 1012.5
Ю 14-17
{18}
17 км 9/1 300 м
[]
+1.7 -0.6 85 -7 -7 1013.1 1011.8
Ю 14-18
{19}
14 км 9/1 300 м
[]
+2.1 -0.1 85 -6 -6 1012.3 1011.0
Ю 15-20
{20}
13 км 9/3 300 м
[]
+2.3 0.0 85 -6 -6 1011.4 1010.1
Ю 17-20
{20}
13 км 9/4 300 м
[]
+2.8 +0.2 83 -6 -6 1010.7 1009.4
Ю 17-20
{21}
14 км 9/9 2000 м
[]
+3.1 -0.1 79 -6 -6 1010.1 1008.8
Ю 16-20
{21}
18 км 9/4 1000 м
[]
+3.3 +0.1 80 -5 -5 1009.9 1008.6
Ю 17-20
{21}
10 км слаб. дождь {морось} 10/10 300 м
[]
+2.9 +0.3 83 -6 -6 1009.9 1008.6
Ю 16-20
{21}
8000 м морось 10/0 300 м
[]
+2.9 +0.3 83 -6 -6 1010.1 1008.8
Ю 16-18
{19}
8000 м морось 10/0 300 м
[]
+2.8 +1.2 89 -6 -6 1010.0 1008.7
Ю 16-19
{19}
10 км морось {дождь} 10/0 300 м
[]
+3.0 +1.1 87 -6 -6 1009.9 1008.6 +1.2 +3.5
Ю 15-18
{18}
10 км слаб. морось 10/0 300 м
[]
+3.0 +1.2 88 -5 -5 1010.2 1008.9
Ю 14-17
{18}
9000 м слаб. морось 10/0 300 м
[]
+3.0 +1.3 89 -5 -5 1010.4 1009.1
Ю 14-17
{17}
11 км слаб. морось {дождь} 10/0 300 м
[]
+2.9 +1.2 89 -5 -5 1010.3 1009.0
Ю 14-17
{17}
8000 м слаб. ливневой дождь 10/0 300 м
[]
+2.8 +1.2 89 -6 -6 1010.3 1009.0
Ю 14-17
{17}
9000 м слаб. ливневой дождь 10/0 300 м
[]
+2.7 +1.2 90 -6 -6 1010.2 1008.9
Ю 14-16
{17}
13 км слаб. морось {дождь} 10/0 300 м
[]
+2.4 +0.9 90 -6 -6 1009.8 1008.5
Ю 14-17
{18}
15 км в посл. час морось 10/10 300 м
[]
+2.3 +0.6 89 -6 -6 1009.8 1008.5
Ю 15-18
{18}
14 км 10/10 300 м
[]
+1.9 +0.3 89 -7 -7 1009.4 1008.1
Ю 15-18
{18}
13 км {ливн. осадки, морось} 9/0 300 м
[]
+1.6 -0.2 88 -7 -7 1009.4 1008.1
Ю 15-18
{19}
14 км 9/0 300 м
[]
+1.2 -0.6 88 -8 -8 1009.3 1008.0
Ю 13-16
{18}
23 км ясно +1.2 -1.2 84 -7 -7 1009.5 1008.2
Ю 13-17
{17}
22 км {ливн. осадки, морось} 9/0 300 м
[]
+0.8 -1.2 86 -8 -8 1009.4 1008.1 +0.5 +3.3
Ю 13-16
{17}
25 км 9/0 300 м
[]
+1.2 -1.2 84 -7 -7 1009.6 1008.3
Ю 13-15
{16}
30 км 9/0 300 м
[]
+1.3 -1.0 85 -7 -7 1009.6 1008.3
Ю 13-15
{16}
28 км 9/0 300 м
[]
+1.9 -0.6 83 -6 -6 1009.3 1008.0
Ю 12-15
{15}
28 км 9/0 300 м
[]
+1.8 -0.7 83 -6 -6 1008.9 1007.5
Ю 11-13
{15}
26 км 10/0 300 м
[]
+2.1 -0.1 85 -6 -6 1008.5 1007.2
Ю 11-14
{14}
30 км 10/10 300 м
[]
+2.1 -0.9 81 -6 -6 1007.9 1006.6
Ю 11-14
{14}
28 км 10/10 600 м
[]
+1.8 -0.7 83 -6 -6 1007.6 1006.3
Ю 11-13
{14}
35 км 10/10 300 м
[]
+1.9 -0.6 83 -6 -6 1007.0 1005.7
Ю 10-12
{13}
30 км 10/10 300 м
[]
+2.0 -0.8 82 -5 -5 1006.2 1004.9
Ю 11-13
{13}
17 км слаб. морось 10/10 300 м
[]
+2.1 +0.2 87 -6 -6 1005.2 1004.0
Ю 13-15
{15}
12 км слаб. дождь 10/10 300 м
[]
+2.0 +0.5 90 -6 -6 1004.4 1003.2
Ю 12-14
{15}
8000 м слаб. дождь 10/10 100 м
[]
+2.0 +1.2 94 -6 -6 1004.0 1002.7 +0.8 +2.5
Ю 12-14
{14}
11 км слаб. дождь 10/10 200 м
[]
+2.3 +0.9 90 -6 -6 1003.6 1002.3
Ю 12-14
{14}
20 км в посл. час дождь 9/9 1380 м
[]
+2.6 +0.4 85 -5 -5 1003.3 1002.1
Ю 12-13
{14}
21 км {дождь, морось} 10/10 1500 м
[]
+2.6 0.0 83 -5 -5 1003.1 1001.8
Ю 12-14
{14}
20 км 9/9 300 м
[]
+2.4 -0.1 84 -6 -6 1002.7 1001.4
Ю 11-13
{14}
17 км 10/10 1200 м
[]
+2.6 +0.4 85 -5 -5 1002.5 1001.2
Ю 11-13
{14}
19 км {дождь, морось} 10/10 1050 м
[]
+2.6 +0.2 84 -5 -5 1002.1 1000.8
Ю 11-13
{15}
18 км 10/10 1110 м
[]
+2.4 +0.1 85 -5 -5 1002.1 1000.8
Ю 11-13
{14}
15 км 10/10 300 м
[]
+2.6 +0.1 84 -5 -5 1002.3 1001.0
Ю 11-12
{14}
7000 м дымка 10/10 300 м
[]
+2.4 +0.9 90 -5 -5 1002.1 1000.8
Местоположение метеостанции Остров Хармая (Финляндия): широта 60.10 долгота 24.98 высота над уровнем моря 3 м.
В архиве по умолчанию представлена погода на Острове Хармая за последнюю неделю. Архивные данные за месяц целиком и за предыдущие месяцы, начиная с января 2011 года, Вы можете получить, выбрав интересующий диапазон дат из раскрывающегося списка и нажав кнопку "Найти!".
*Определитесь, кто Вы:
Внимание! Время в таблицах - всемирное. Для получения местного времени необходимо прибавить поправку, которая равна 1 ч.
Смотрите также архив погоды в соседних городах и на ближайших метеорологических станциях:
Партнеры нашего сайта:      
Пояснения к столбцам:
  • Ветер - указаны скорость ветра в м/с - средняя за 10 мин, порывы в срок и между сроками (в фигурных скобках) и направление, откуда дует ветер: С - северный,
  • СВ - северо-восточный, В - восточный, ЮВ - юго-восточный, Ю - южный, ЮЗ - юго-западный, З - западный, СЗ - северо-западный.
  • Видимость - горизонтальная дальность видимости в метрах или километрах. При видимости от 1 до 10 км при отсутствии осадков обычно наблюдается дымка, при ухудшении видимости до 1 км и менее - туман. В сухую погоду видимость может ухудшаться дымом, пылью или мглою.
  • Явления - указаны атмосферные явления, наблюдавшиеся в срок или в последний час перед сроком; фигурными скобками обозначены явления, наблюдавшиеся между сроками (за 1-3 часа до срока); квадратными скобками обозначены град или гололедные отложения с указанием их диаметра в мм.
  • Облачность - указаны через наклонную черту общая и нижняя облачность в баллах и высота нижней границы облаков в метрах; квадратными скобками обозначены формы облаков: Ci - перистые, Cs - перисто-слоистые, Cc - перисто-кучевые, Ac - высококучевые, As - высокослоистые, Sc - слоисто-кучевые, Ns - слоисто-дождевые, Cu - кучевые, Cb - кучево-дождевые. Подробнее классификацию облаков см. в Атласе облаков (PDF).
  • T - Температура воздуха - температура, измеренная на высоте 2 м над землей.
  • Td - Температура точки росы - температура, при понижении до которой содержащийся в воздухе водяной пар достигнет насыщения.
  • f - Относительная влажность воздуха - влажноcть воздуха, измеренная на высоте 2 м над землей.
  • Te - Эффективная температура - температура, которую ощущает одетый по сезону человек в тени. Характеристика душности погоды. При расчете учитывается влияние влажности воздуха и скорости ветра на теплоощущения человека.
  • Tes - Эффективная температура на солнце - температура, которую ощущает человек, с поправкой на солнечный нагрев. Характеристика знойности погоды. Зависит от высоты солнца над горизонтом, облачности и скорости ветра. Ночью, в пасмурную погоду, а также при ветре 12 м/с и более поправка равна нулю.
  • P - Атмосферное давление - приведенное к уровню моря атмосферное давление.
  • Po - Атмосферное давление - измеренное на уровне метеостанции атмосферное давление.
  • Tmin - Минимальная температура - минимум температуры воздуха на высоте 2 м над землей.
  • Tmax - Максимальная температура - максимум температуры воздуха на высоте 2 м над землей.
  • R - Количество осадков - Количество выпавших осадков за период времени, мм. При наведении курсора мыши на число - период времени, за который выпало указанное количество осадков.
  • R24 - Количество осадков - Количество выпавших осадков за 24 часа, мм.
  • S - Снежный покров - Высота снежного покрова, см. При наведении курсора мыши на число - состояние снежного покрова и степень покрытия местности в баллах.